QPF
0.00 0.00 0.00 0.00 0.00 0.00 0.00 0.00 0.00 0.00 0.00 0.00 0.00 0.00 0.00 0.00 0.00 0.00 0.00 0.00 0.00 0.00 0.00 0.00 0.00 0.00 0.00 0.00 0.00 0.00 0.00 0.00 0.00 0.00 0.00 0.00 0.00 0.00 0.00 0.00 0.00 0.00 0.00 0.00 0.00 0.00 0.00 0.00 0.00 0.00 0.00 0.00 0.00 0.00
0.00 0.00 0.00 0.00 0.00 0.00 0.00 0.00 0.00 0.00 0.00 0.00 0.00 0.00 0.00 0.00 0.00 0.00 0.00 0.00 0.00 0.00 0.00 0.00 0.00 0.00 0.00 0.00 0.00 0.00 0.00 0.00 0.00 0.00 0.00 0.00 0.00 0.00 0.00 0.00 0.00 0.00 0.00 0.00 0.00 0.00 0.00 0.00 0.00 0.00 0.00 0.00 0.00 0.00
0.00 0.00 0.00 0.00 0.00 0.00 0.00 0.00 0.00 0.00 0.00 0.00 0.00 0.00 0.00 0.00 0.00 0.00 0.00 0.00 0.00 0.00 0.00 0.00 0.00 0.00 0.00 0.00 0.00 0.00 0.00 0.00 0.00 0.00 0.00 0.00 0.00 0.00 0.00 0.00 0.00 0.00 0.00 0.00 0.00 0.00 0.00 0.00 0.00 0.00 0.00 0.00 0.00 0.00
0.00 0.00 0.00 0.00 0.00 0.00 0.00 0.00 0.00 0.00 0.00 0.00 0.00 0.00 0.00 0.00 0.00 0.00 0.00 0.00 0.00 0.00 0.00 0.00 0.00 0.00 0.00 0.00 0.00 0.00 0.00 0.00 0.00 0.00 0.00 0.00 0.00 0.00 0.00 0.00 0.00 0.00 0.00 0.00 0.00 0.00 0.00 0.00 0.00 0.00 0.00 0.00 0.00 0.00
0.00 0.00 0.00 0.00 0.00 0.00 0.00 0.00 0.00 0.00 0.00 0.00 0.00 0.00 0.00 0.00 0.00 0.00 0.00 0.00 0.00 0.00 0.00 0.00 0.00 0.00 0.00 0.00 0.00 0.00 0.00 0.00 0.00 0.00 0.00 0.00 0.00 0.00 0.00 0.00 0.00 0.00 0.00 0.00 0.00 0.00 0.00 0.00 0.00 0.00 0.00 0.00 0.00 0.00
0.00 0.00 0.00 0.00 0.00 0.00 0.00 0.00 0.00 0.00 0.00 0.00 0.00 0.00 0.00 0.00 0.00 0.00 0.00 0.00 0.00 0.00 0.00 0.00 0.00 0.00 0.00 0.00 0.00 0.00 0.00 0.00 0.00 0.00 0.00 0.00 0.00 0.00 0.00 0.00 0.00 0.00 0.00 0.00 0.00 0.00 0.00 0.00 0.00 0.00 0.00 0.00 0.00 0.00
0.00 0.00 0.00 0.00 0.00 0.00 0.00 0.00 0.00 0.00 0.00 0.00 0.00 0.00 0.00 0.00 0.00 0.00 0.00 0.00 0.00 0.00 0.00 0.00 0.00 0.00 0.00 0.00 0.00 0.00 0.00 0.00 0.00 0.00 0.00 0.00 0.00 0.00 0.00 0.00 0.00 0.00 0.00 0.00 0.00 0.00 0.00 0.00 0.00 0.00 0.00 0.00 0.00 0.00
0.00 0.00 0.00 0.00 0.00 0.00 0.00 0.00 0.00 0.00 0.00 0.00 0.00 0.00 0.00 0.00 0.00 0.00 0.00 0.00 0.00 0.00 0.00 0.00 0.00 0.00 0.00 0.00 0.00 0.00 0.00 0.00 0.00 0.00 0.00 0.00 0.00 0.00 0.00 0.00 0.00 0.00 0.00 0.00 0.00 0.00 0.00 0.00 0.00 0.00 0.00 0.00 0.00 0.00
0.00 0.00 0.00 0.00 0.00 0.00 0.00 0.00 0.00 0.00 0.00 0.00 0.00 0.00 0.00 0.00 0.00 0.00 0.00 0.00 0.00 0.00 0.00 0.00 0.00 0.00 0.00 0.00 0.00 0.00 0.00 0.00 0.00 0.00 0.00 0.00 0.00 0.00 0.00 0.00 0.00 0.00 0.00 0.00 0.00 0.00 0.00 0.00 0.00 0.00 0.00 0.00 0.00 0.00
0.00 0.00 0.00 0.00 0.00 0.00 0.00 0.00 0.00 0.00 0.00 0.00 0.00 0.00 0.00 0.00 0.00 0.00 0.00 0.00 0.00 0.00 0.00 0.00 0.00 0.00 0.00 0.00 0.00 0.00 0.00 0.00 0.00 0.00 0.00 0.00 0.00 0.00 0.00 0.00 0.00 0.00 0.00 0.00 0.00 0.00 0.00 0.00 0.00 0.00 0.00 0.00 0.00 0.00
0.00 0.00 0.00 0.00 0.00 0.00 0.00 0.00 0.00 0.00 0.00 0.00 0.00 0.00 0.00 0.00 0.00 0.00 0.00 0.00 0.00 0.00 0.00 0.00 0.00 0.00 0.00 0.00 0.00 0.00 0.00 0.00 0.00 0.00 0.00 0.00 0.00 0.00 0.00 0.00 0.00 0.00 0.00 0.00 0.00 0.00 0.00 0.00 0.00 0.00 0.00 0.00 0.00 0.00
0.00 0.00 0.00 0.00 0.00 0.00 0.00 0.00 0.00 0.00 0.00 0.00 0.00 0.00 0.00 0.00 0.00 0.00 0.00 0.00 0.00 0.00 0.00 0.00 0.00 0.00 0.00 0.00 0.00 0.00 0.00 0.00 0.00 0.00 0.00 0.00 0.00 0.00 0.00 0.00 0.00 0.00 0.00 0.00 0.00 0.00 0.00 0.00 0.00 0.00 0.00 0.00 0.00 0.00
0.00 0.00 0.01 0.00 0.00 0.00 0.00 0.00 0.00 0.00 0.00 0.00 0.00 0.00 0.00 0.00 0.00 0.00 0.00 0.00 0.00 0.00 0.00 0.00 0.00 0.00 0.00 0.00 0.00 0.00 0.00 0.00 0.00 0.00 0.00 0.00 0.00 0.00 0.00 0.00 0.00 0.00 0.00 0.00 0.00 0.00 0.00 0.00 0.00 0.00 0.00 0.00 0.00 0.00
0.00 0.01 0.00 0.00 0.00 0.00 0.00 0.00 0.00 0.00 0.00 0.00 0.00 0.00 0.00 0.00 0.00 0.00 0.00 0.00 0.00 0.00 0.00 0.00 0.00 0.00 0.00 0.00 0.00 0.00 0.00 0.00 0.00 0.00 0.00 0.00 0.00 0.00 0.00 0.00 0.00 0.00 0.00 0.00 0.00 0.00 0.00 0.00 0.00 0.00 0.00 0.00 0.00 0.00
0.01 0.00 0.00 0.00 0.00 0.00 0.00 0.00 0.00 0.00 0.00 0.00 0.00 0.00 0.00 0.00 0.00 0.00 0.00 0.00 0.00 0.00 0.00 0.00 0.00 0.00 0.00 0.00 0.00 0.00 0.00 0.00 0.00 0.00 0.00 0.00 0.00 0.00 0.00 0.00 0.00 0.00 0.00 0.00 0.00 0.00 0.00 0.00 0.00 0.00 0.00 0.00 0.00 0.00
0.00 0.00 0.00 0.00 0.00 0.00 0.00 0.00 0.00 0.00 0.00 0.00 0.00 0.00 0.00 0.00 0.00 0.00 0.00 0.00 0.00 0.00 0.00 0.00 0.00 0.00 0.00 0.00 0.00 0.00 0.00 0.00 0.00 0.00 0.00 0.00 0.00 0.00 0.00 0.00 0.00 0.00 0.00 0.00 0.00 0.00 0.00 0.00 0.00 0.00 0.00 0.00 0.00 0.00
0.00 0.00 0.00 0.00 0.00 0.00 0.00 0.00 0.00 0.00 0.00 0.00 0.00 0.00 0.00 0.00 0.00 0.00 0.00 0.00 0.00 0.00 0.00 0.00 0.00 0.00 0.00 0.00 0.00 0.00 0.00 0.00 0.00 0.00 0.00 0.00 0.00 0.00 0.00 0.00 0.00 0.00 0.00 0.00 0.00 0.00 0.00 0.00 0.00 0.00 0.00 0.00 0.00 0.00
0.00 0.00 0.00 0.00 0.00 0.00 0.00 0.00 0.00 0.00 0.00 0.00 0.00 0.00 0.00 0.00 0.00 0.00 0.00 0.00 0.00 0.00 0.00 0.00 0.00 0.00 0.00 0.00 0.00 0.00 0.00 0.00 0.00 0.00 0.00 0.00 0.00 0.00 0.00 0.00 0.00 0.00 0.00 0.00 0.00 0.00 0.00 0.00 0.00 0.00 0.00 0.00 0.00 0.00
0.00 0.00 0.00 0.00 0.00 0.00 0.00 0.00 0.00 0.00 0.00 0.00 0.00 0.00 0.00 0.00 0.00 0.00 0.00 0.00 0.00 0.00 0.00 0.00 0.00 0.00 0.00 0.00 0.00 0.00 0.00 0.00 0.00 0.00 0.00 0.00 0.00 0.00 0.00 0.00 0.00 0.00 0.00 0.00 0.00 0.00 0.00 0.00 0.00 0.00 0.00 0.00 0.00 0.00
0.00 0.00 0.00 0.00 0.00 0.00 0.00 0.00 0.00 0.00 0.00 0.00 0.00 0.00 0.00 0.00 0.00 0.00 0.00 0.00 0.00 0.00 0.00 0.00 0.00 0.00 0.00 0.00 0.00 0.00 0.00 0.00 0.00 0.00 0.00 0.00 0.00 0.00 0.00 0.00 0.00 0.00 0.00 0.00 0.00 0.00 0.00 0.00 0.00 0.00 0.00 0.00 0.00 0.00
0.00 0.00 0.00 0.00 0.00 0.00 0.00 0.00 0.00 0.00 0.00 0.00 0.00 0.00 0.00 0.00 0.00 0.00 0.00 0.00 0.00 0.00 0.00 0.00 0.00 0.00 0.00 0.00 0.00 0.00 0.00 0.00 0.00 0.00 0.00 0.00 0.00 0.00 0.00 0.00 0.00 0.00 0.00 0.00 0.00 0.00 0.00 0.00 0.00 0.00 0.00 0.00 0.00 0.00
0.00 0.00 0.00 0.00 0.00 0.00 0.00 0.00 0.00 0.00 0.00 0.00 0.00 0.00 0.00 0.00 0.00 0.00 0.00 0.00 0.00 0.00 0.00 0.00 0.00 0.00 0.00 0.00 0.00 0.00 0.00 0.00 0.00 0.00 0.00 0.00 0.00 0.00 0.00 0.00 0.00 0.00 0.00 0.00 0.00 0.00 0.00 0.00 0.00 0.00 0.00 0.00 0.00 0.00
0.00 0.00 0.00 0.00 0.00 0.00 0.00 0.00 0.00 0.00 0.00 0.00 0.00 0.00 0.00 0.00 0.00 0.00 0.00 0.00 0.00 0.00 0.00 0.00 0.00 0.00 0.00 0.00 0.00 0.00 0.00 0.00 0.00 0.00 0.00 0.00 0.00 0.00 0.00 0.00 0.00 0.00 0.00 0.00 0.00 0.00 0.00 0.00 0.00 0.00 0.00 0.00 0.00 0.00
0.00 0.00 0.00 0.00 0.00 0.00 0.00 0.00 0.00 0.00 0.00 0.00 0.00 0.00 0.00 0.00 0.00 0.00 0.00 0.00 0.00 0.00 0.00 0.00 0.00 0.00 0.00 0.00 0.00 0.00 0.00 0.00 0.00 0.00 0.00 0.00 0.00 0.00 0.00 0.00 0.00 0.00 0.00 0.00 0.00 0.00 0.00 0.00 0.00 0.00 0.00 0.00 0.00 0.00
0.00 0.00 0.00 0.00 0.00 0.00 0.00 0.00 0.00 0.00 0.00 0.00 0.00 0.00 0.00 0.00 0.00 0.00 0.00 0.00 0.00 0.00 0.00 0.00 0.00 0.00 0.00 0.00 0.00 0.00 0.00 0.00 0.00 0.00 0.00 0.00 0.00 0.00 0.00 0.00 0.00 0.00 0.00 0.00 0.00 0.00 0.00 0.00 0.00 0.00 0.00 0.00 0.00 0.00
0.00 0.00 0.00 0.00 0.00 0.00 0.00 0.00 0.00 0.00 0.00 0.00 0.00 0.00 0.00 0.00 0.00 0.00 0.00 0.00 0.00 0.00 0.00 0.00 0.00 0.00 0.00 0.00 0.00 0.00 0.00 0.00 0.00 0.00 0.00 0.00 0.00 0.00 0.00 0.00 0.00 0.00 0.00 0.00 0.00 0.00 0.00 0.00 0.00 0.00 0.00 0.00 0.00 0.00
0.00 0.00 0.00 0.00 0.00 0.00 0.00 0.00 0.00 0.00 0.00 0.00 0.00 0.00 0.00 0.00 0.00 0.00 0.00 0.00 0.00 0.00 0.00 0.00 0.00 0.00 0.00 0.00 0.00 0.00 0.00 0.00 0.00 0.00 0.00 0.00 0.00 0.00 0.00 0.00 0.00 0.00 0.00 0.00 0.00 0.00 0.00 0.00 0.00 0.00 0.00 0.00 0.00 0.00
0.00 0.00 0.00 0.00 0.00 0.00 0.00 0.00 0.00 0.00 0.00 0.00 0.00 0.00 0.00 0.00 0.00 0.00 0.00 0.00 0.00 0.00 0.00 0.00 0.00 0.00 0.00 0.00 0.00 0.00 0.00 0.00 0.00 0.00 0.00 0.00 0.00 0.00 0.00 0.00 0.00 0.00 0.00 0.00 0.00 0.00 0.00 0.00 0.00 0.00 0.00 0.00 0.00 0.00
0.00 0.00 0.00 0.00 0.00 0.00 0.00 0.00 0.00 0.00 0.00 0.00 0.00 0.00 0.00 0.00 0.00 0.00 0.00 0.00 0.00 0.00 0.00 0.00 0.00 0.00 0.00 0.00 0.00 0.00 0.00 0.00 0.00 0.00 0.00 0.00 0.00 0.00 0.00 0.00 0.00 0.00 0.00 0.00 0.00 0.00 0.00 0.00 0.00 0.00 0.00 0.00 0.00 0.00
0.00 0.00 0.00 0.00 0.00 0.00 0.00 0.00 0.00 0.00 0.00 0.00 0.00 0.00 0.00 0.00 0.00 0.00 0.00 0.00 0.00 0.00 0.00 0.00 0.00 0.00 0.00 0.00 0.00 0.00 0.00 0.00 0.00 0.00 0.00 0.00 0.00 0.00 0.00 0.00 0.00 0.00 0.00 0.00 0.00 0.00 0.00 0.00 0.00 0.00 0.00 0.00 0.00 0.00
0.00 0.00 0.00 0.00 0.00 0.00 0.00 0.00 0.00 0.00 0.00 0.00 0.00 0.00 0.00 0.00 0.00 0.00 0.00 0.00 0.00 0.00 0.00 0.00 0.00 0.00 0.00 0.00 0.00 0.00 0.00 0.00 0.00 0.00 0.00 0.00 0.00 0.00 0.00 0.00 0.00 0.00 0.00 0.00 0.00 0.00 0.00 0.00 0.00 0.00 0.00 0.00 0.00 0.00
0.00 0.00 0.00 0.00 0.00 0.00 0.00 0.00 0.00 0.00 0.00 0.00 0.00 0.00 0.00 0.00 0.00 0.00 0.00 0.00 0.00 0.00 0.00 0.00 0.00 0.00 0.00 0.00 0.00 0.00 0.00 0.00 0.00 0.00 0.00 0.00 0.00 0.00 0.00 0.00 0.00 0.00 0.00 0.00 0.00 0.00 0.00 0.00 0.00 0.00 0.00 0.00 0.00 0.00
0.00 0.00 0.00 0.00 0.00 0.00 0.00 0.00 0.00 0.00 0.00 0.00 0.00 0.00 0.00 0.00 0.00 0.00 0.00 0.00 0.00 0.00 0.00 0.00 0.00 0.00 0.00 0.00 0.00 0.00 0.00 0.00 0.00 0.00 0.00 0.00 0.00 0.00 0.00 0.00 0.00 0.00 0.00 0.00 0.00 0.00 0.00 0.00 0.00 0.00 0.00 0.00 0.00 0.00
MSLP
1019.62 1020.64 1021.66 1022.76 1023.79 1024.61 1025.53 1026.26 1026.44 1026.54 1026.83 1026.82 1026.76 1026.67 1026.52 1026.41 1026.16 1026.66 1028.25 1028.16 1028.46 1031.46 1032.79 1032.46 1032.60 1033.00 1033.43 1033.66 1034.27 1034.48 1034.92 1034.58 1035.00 1035.75 1036.34 1037.08 1036.97 1037.07 1037.18 1037.31 1037.61 1038.44 1038.86 1038.95 1038.79 1038.52 1037.96 1037.40 1036.76 1037.31 1037.90 1037.12 1036.74 1036.17
1018.88 1020.08 1021.16 1022.21 1023.41 1024.35 1025.11 1026.01 1026.48 1026.71 1026.85 1027.02 1027.17 1027.21 1027.06 1026.77 1026.70 1026.65 1028.48 1028.53 1028.94 1030.81 1033.29 1033.24 1033.28 1033.26 1033.20 1033.45 1034.12 1034.57 1035.14 1035.61 1035.95 1036.79 1037.49 1037.97 1038.13 1038.00 1038.52 1038.81 1038.69 1039.70 1039.98 1040.04 1039.92 1038.76 1038.18 1037.85 1037.91 1038.11 1037.87 1037.22 1036.66 1036.10
1018.36 1019.50 1020.62 1021.69 1022.90 1024.08 1024.93 1025.71 1026.27 1026.85 1026.74 1027.05 1027.30 1027.54 1027.49 1027.36 1027.20 1027.22 1028.93 1029.37 1029.65 1032.29 1033.78 1033.77 1033.80 1033.52 1033.66 1033.69 1033.53 1034.44 1035.03 1035.12 1035.76 1036.38 1037.51 1038.48 1038.67 1038.42 1039.16 1039.53 1039.96 1040.37 1040.36 1040.53 1040.26 1039.19 1038.29 1037.96 1037.81 1037.70 1037.42 1036.96 1036.48 1035.90
1017.83 1018.92 1020.04 1021.25 1022.51 1023.67 1024.54 1025.61 1026.24 1026.74 1026.68 1027.28 1027.61 1027.83 1027.91 1028.07 1027.98 1028.26 1029.46 1030.01 1030.23 1032.07 1034.08 1034.74 1033.98 1033.64 1033.66 1033.97 1033.75 1034.05 1034.61 1035.04 1035.68 1036.44 1037.72 1038.84 1038.64 1038.31 1039.29 1040.01 1040.99 1041.33 1041.05 1041.03 1040.27 1039.29 1038.49 1037.59 1037.83 1037.74 1037.14 1036.71 1036.12 1035.60
1017.42 1018.63 1019.50 1021.00 1022.18 1023.35 1024.57 1025.32 1026.31 1026.82 1026.89 1027.36 1028.03 1028.36 1028.46 1028.62 1028.83 1029.49 1030.08 1030.68 1030.23 1031.37 1034.01 1034.71 1034.41 1034.03 1034.02 1034.11 1034.07 1034.14 1034.61 1035.30 1036.05 1036.83 1037.73 1038.29 1038.19 1038.70 1039.69 1040.68 1041.76 1041.79 1041.79 1041.47 1040.55 1039.88 1039.59 1038.71 1038.17 1037.78 1037.31 1036.68 1036.11 1035.52
1016.99 1018.16 1019.32 1020.78 1022.17 1023.42 1024.22 1025.30 1026.05 1026.96 1027.17 1027.71 1028.28 1028.59 1028.96 1029.07 1029.19 1029.54 1030.91 1031.12 1030.70 1030.98 1033.11 1035.38 1034.98 1034.65 1034.60 1034.57 1034.61 1034.68 1034.91 1035.36 1035.99 1036.57 1037.39 1037.73 1038.06 1039.28 1041.00 1041.67 1041.78 1041.46 1041.14 1040.81 1040.52 1039.99 1039.54 1038.77 1038.38 1038.02 1037.49 1036.93 1036.34 1035.57
1016.77 1018.23 1019.36 1020.80 1022.11 1023.52 1024.57 1025.48 1026.30 1027.06 1027.53 1028.17 1028.50 1029.05 1029.36 1029.66 1029.84 1030.50 1031.49 1031.78 1031.16 1031.30 1033.48 1036.11 1036.03 1035.42 1035.36 1035.19 1035.32 1035.23 1035.23 1035.46 1035.80 1036.52 1037.30 1037.83 1038.43 1039.41 1041.31 1042.14 1041.64 1041.32 1040.96 1040.50 1040.30 1040.08 1039.33 1038.93 1038.63 1038.12 1037.66 1037.09 1036.39 1035.63
1016.99 1018.12 1019.52 1020.80 1022.34 1023.56 1024.67 1025.44 1026.29 1027.08 1027.84 1028.66 1029.17 1029.54 1029.83 1030.17 1030.68 1031.20 1031.90 1031.65 1031.33 1032.49 1034.18 1037.31 1037.71 1036.80 1036.57 1036.47 1036.70 1036.15 1036.21 1035.99 1035.99 1036.48 1037.22 1038.14 1038.98 1040.18 1041.83 1041.72 1041.61 1041.29 1040.95 1040.41 1040.27 1040.06 1039.69 1039.17 1038.71 1038.17 1037.74 1037.08 1036.36 1035.68
1016.94 1018.23 1019.35 1020.72 1022.18 1023.56 1024.86 1025.65 1026.27 1027.07 1028.06 1029.20 1029.52 1029.91 1030.54 1031.26 1032.08 1032.64 1032.12 1032.13 1032.27 1033.63 1036.56 1038.62 1039.76 1038.92 1037.90 1037.94 1037.84 1037.37 1037.17 1037.32 1036.96 1037.10 1037.71 1038.29 1039.55 1040.64 1041.48 1041.85 1041.75 1041.54 1041.41 1040.96 1040.35 1039.87 1039.58 1039.34 1038.88 1038.43 1037.94 1037.27 1036.81 1036.03
1017.54 1018.79 1019.69 1021.05 1022.28 1023.54 1024.40 1025.46 1026.30 1027.29 1028.32 1029.59 1030.22 1030.75 1032.20 1032.93 1032.66 1032.64 1033.16 1033.44 1034.66 1036.56 1038.00 1040.08 1040.54 1039.98 1039.54 1039.21 1039.24 1039.43 1038.91 1038.84 1038.25 1038.40 1038.16 1038.66 1039.82 1040.65 1041.18 1041.55 1041.71 1041.71 1041.44 1041.18 1040.74 1039.95 1039.66 1039.38 1039.12 1038.66 1038.27 1037.82 1037.33 1036.59
1018.15 1019.30 1020.44 1021.79 1022.80 1023.59 1024.40 1025.59 1026.70 1027.69 1028.88 1029.94 1031.08 1032.18 1032.97 1032.81 1033.50 1035.05 1036.30 1037.48 1039.12 1039.99 1040.72 1041.24 1041.12 1040.69 1040.14 1040.54 1040.65 1040.76 1040.78 1040.17 1039.68 1039.18 1038.93 1039.32 1039.98 1040.57 1041.09 1041.46 1041.57 1041.62 1041.49 1041.28 1041.02 1040.63 1040.26 1039.91 1039.46 1038.98 1038.45 1038.01 1037.48 1036.85
1018.35 1019.58 1021.00 1022.26 1022.88 1023.88 1024.69 1025.91 1027.03 1028.45 1029.06 1029.29 1030.70 1031.92 1033.33 1034.75 1036.20 1037.79 1040.12 1040.23 1040.91 1041.92 1041.77 1041.40 1041.01 1040.83 1040.91 1040.92 1041.59 1041.92 1041.90 1041.10 1040.48 1039.58 1039.42 1039.66 1040.12 1040.61 1041.17 1041.59 1041.71 1041.77 1041.64 1041.43 1041.22 1040.77 1040.27 1039.83 1039.42 1039.05 1038.65 1038.17 1037.73 1037.16
1018.95 1020.07 1021.51 1022.39 1023.41 1024.28 1025.39 1026.40 1027.52 1027.94 1028.62 1029.76 1030.97 1033.46 1035.16 1037.56 1039.09 1039.81 1041.42 1042.01 1041.76 1041.92 1041.87 1041.70 1041.59 1041.61 1041.47 1041.75 1042.81 1043.04 1042.64 1041.81 1040.50 1039.96 1039.76 1040.03 1040.35 1040.77 1041.43 1041.81 1041.90 1041.91 1041.81 1041.63 1041.21 1040.76 1040.30 1039.85 1039.44 1039.10 1038.68 1038.27 1037.90 1037.35
1019.45 1020.86 1021.93 1023.18 1023.99 1025.16 1026.23 1027.24 1027.97 1028.38 1028.90 1031.11 1033.33 1036.22 1038.01 1040.20 1040.73 1040.85 1041.30 1041.58 1041.74 1041.86 1042.10 1042.31 1042.41 1042.51 1042.70 1042.87 1043.49 1043.77 1042.94 1042.10 1041.22 1040.44 1040.14 1040.29 1040.62 1041.03 1041.54 1041.85 1042.12 1042.25 1042.13 1041.94 1041.56 1041.01 1040.48 1040.06 1039.63 1039.10 1038.67 1038.30 1037.97 1037.44
1020.20 1021.39 1022.73 1023.94 1024.34 1025.71 1026.89 1027.98 1028.47 1028.75 1030.41 1033.20 1034.94 1038.11 1039.96 1040.79 1041.25 1041.33 1041.51 1041.96 1042.07 1042.04 1042.25 1042.97 1043.31 1043.53 1043.73 1043.95 1044.08 1043.93 1043.23 1042.37 1041.34 1040.63 1040.31 1040.34 1040.64 1041.19 1041.67 1041.92 1042.17 1042.35 1042.26 1042.08 1041.78 1041.29 1040.68 1040.16 1039.75 1039.19 1038.51 1038.14 1037.82 1037.37
1021.01 1022.66 1023.58 1023.70 1025.25 1026.30 1027.54 1028.63 1029.15 1029.87 1032.76 1035.01 1037.48 1039.74 1040.70 1041.32 1041.63 1041.78 1042.42 1042.69 1042.45 1042.62 1042.77 1043.55 1044.53 1045.00 1045.28 1045.01 1044.67 1044.18 1043.61 1042.49 1041.35 1040.74 1040.38 1040.46 1040.81 1041.29 1041.56 1041.76 1041.98 1042.20 1042.21 1042.05 1041.55 1041.11 1040.63 1040.06 1039.65 1039.18 1038.48 1038.01 1037.60 1037.22
1021.69 1022.57 1023.10 1024.42 1026.00 1027.25 1028.28 1028.95 1030.22 1033.05 1035.40 1037.54 1039.12 1039.39 1040.50 1040.68 1041.25 1042.25 1042.41 1042.63 1042.72 1042.95 1044.01 1044.66 1045.44 1045.54 1045.43 1045.11 1044.45 1043.50 1042.53 1041.74 1041.02 1040.73 1040.42 1040.53 1040.85 1041.07 1041.27 1041.46 1041.58 1041.57 1041.57 1041.29 1041.02 1040.60 1040.21 1039.64 1039.18 1038.79 1038.44 1037.85 1037.35 1036.98
1022.05 1023.03 1024.00 1025.38 1026.62 1027.67 1029.73 1030.61 1032.93 1035.56 1038.18 1039.40 1039.76 1040.36 1040.45 1040.69 1041.43 1042.00 1042.45 1042.44 1042.54 1043.65 1044.05 1044.72 1044.94 1045.40 1045.33 1045.01 1043.74 1042.72 1041.85 1041.28 1040.85 1040.56 1040.44 1040.41 1040.51 1040.79 1040.91 1041.01 1040.89 1040.82 1040.81 1040.62 1040.36 1040.09 1039.73 1039.33 1039.05 1038.67 1038.11 1037.60 1037.07 1036.61
1022.78 1023.73 1025.26 1026.18 1026.14 1027.88 1031.05 1033.65 1034.63 1037.65 1039.51 1039.95 1040.34 1040.48 1040.89 1041.35 1041.80 1041.85 1041.94 1042.38 1042.69 1042.87 1043.76 1044.73 1045.30 1045.09 1044.14 1043.20 1042.67 1041.97 1041.88 1041.49 1041.43 1040.78 1040.29 1040.11 1040.09 1040.25 1040.29 1040.29 1040.20 1040.17 1040.12 1040.04 1039.88 1039.71 1039.33 1039.00 1038.64 1038.23 1037.81 1037.38 1037.03 1036.55
1024.02 1025.32 1026.04 1026.07 1026.43 1029.24 1033.13 1035.49 1035.94 1037.61 1040.16 1040.53 1040.96 1041.45 1041.83 1042.18 1042.17 1042.10 1042.46 1042.78 1042.91 1043.38 1044.20 1044.59 1044.18 1043.19 1042.54 1041.92 1041.60 1041.54 1041.25 1041.02 1041.05 1040.82 1040.33 1040.04 1039.78 1039.82 1039.75 1039.66 1039.65 1039.65 1039.63 1039.61 1039.52 1039.18 1038.97 1038.73 1038.34 1037.99 1037.55 1037.26 1037.00 1036.56
1024.72 1026.24 1026.46 1026.88 1029.44 1031.56 1035.06 1037.23 1038.30 1039.07 1039.96 1041.08 1041.79 1042.10 1042.89 1042.74 1042.92 1043.32 1043.53 1043.30 1043.61 1043.77 1043.71 1043.07 1042.40 1041.59 1041.17 1041.18 1040.84 1040.84 1041.02 1040.89 1040.57 1040.41 1040.12 1039.79 1039.38 1039.32 1039.27 1039.23 1039.28 1039.32 1039.38 1039.40 1039.39 1039.26 1038.99 1038.80 1038.41 1037.96 1037.81 1037.44 1037.03 1036.79
1025.59 1026.34 1027.22 1028.19 1030.96 1033.78 1036.72 1038.41 1038.70 1039.62 1040.42 1041.76 1042.33 1042.84 1043.66 1044.73 1044.58 1044.69 1044.31 1044.29 1043.41 1042.11 1041.81 1041.23 1041.05 1040.60 1040.76 1040.76 1040.51 1040.23 1039.89 1039.80 1039.70 1039.61 1039.23 1039.12 1039.09 1039.07 1039.06 1038.99 1039.04 1039.10 1039.15 1039.15 1039.17 1039.18 1039.00 1038.75 1038.23 1037.96 1037.92 1037.58 1037.39 1037.03
1025.55 1026.23 1028.28 1029.73 1032.43 1035.29 1038.80 1039.13 1039.49 1040.49 1041.31 1042.66 1043.34 1044.37 1045.18 1045.33 1045.06 1044.57 1044.59 1043.51 1041.92 1040.40 1040.14 1040.05 1039.91 1039.72 1039.85 1039.60 1039.62 1039.55 1039.42 1039.34 1039.30 1039.20 1039.04 1038.94 1038.86 1038.79 1038.74 1038.69 1038.70 1038.82 1038.91 1038.85 1038.92 1038.95 1038.90 1038.47 1038.42 1038.12 1038.10 1037.92 1037.70 1037.39
1026.29 1028.75 1030.86 1032.60 1034.34 1037.50 1038.80 1039.62 1040.05 1041.08 1042.07 1043.16 1044.11 1044.99 1045.35 1045.40 1044.92 1045.12 1044.36 1042.48 1040.36 1039.93 1039.84 1039.66 1039.80 1039.70 1039.60 1039.53 1039.45 1039.01 1038.70 1038.70 1038.74 1038.74 1038.69 1038.77 1038.72 1038.59 1038.47 1038.41 1038.38 1038.39 1038.48 1038.56 1038.72 1038.77 1038.79 1038.72 1038.38 1038.42 1038.29 1038.11 1037.92 1037.74
1027.80 1032.51 1033.24 1035.22 1036.46 1037.32 1038.84 1040.07 1040.86 1041.67 1043.18 1043.78 1044.61 1045.00 1045.03 1045.02 1044.88 1044.64 1043.46 1041.17 1039.94 1039.74 1039.21 1039.26 1039.33 1039.17 1039.40 1039.13 1038.92 1038.58 1038.09 1038.36 1038.73 1038.86 1038.46 1038.56 1038.43 1038.40 1038.36 1038.23 1038.11 1038.08 1038.16 1038.44 1038.59 1038.65 1038.68 1038.61 1038.49 1038.44 1038.34 1038.14 1037.89 1037.86
1031.00 1034.25 1034.87 1035.67 1036.63 1037.09 1038.75 1039.92 1040.85 1041.61 1042.40 1043.58 1044.19 1044.45 1044.59 1044.63 1044.54 1043.22 1041.12 1039.65 1039.07 1039.06 1038.68 1038.63 1038.74 1039.08 1038.97 1038.80 1038.76 1038.61 1038.30 1038.25 1038.63 1038.94 1038.65 1038.41 1038.35 1038.32 1038.42 1038.32 1038.22 1038.06 1038.05 1038.21 1038.41 1038.46 1038.41 1038.31 1038.21 1038.15 1038.12 1038.09 1038.03 1037.99
1033.12 1035.00 1035.62 1035.65 1036.03 1036.84 1038.44 1039.42 1040.11 1040.56 1042.05 1042.50 1043.10 1043.86 1044.13 1043.94 1042.79 1040.36 1038.74 1038.41 1038.50 1038.42 1038.25 1038.22 1038.24 1038.47 1038.48 1038.65 1038.51 1038.48 1038.48 1038.62 1038.88 1038.91 1038.67 1038.53 1038.32 1038.06 1038.02 1038.10 1038.06 1037.94 1037.96 1038.16 1038.23 1038.21 1038.08 1037.90 1037.77 1037.72 1037.77 1037.84 1037.85 1037.89
1034.25 1035.11 1035.74 1036.60 1036.90 1037.56 1038.73 1039.65 1040.25 1040.67 1040.57 1041.08 1041.74 1042.56 1042.42 1041.30 1040.08 1038.50 1038.32 1038.39 1038.54 1038.56 1038.60 1038.56 1038.52 1038.52 1038.71 1038.81 1038.79 1038.83 1038.84 1038.97 1039.20 1039.32 1038.97 1038.74 1038.78 1038.35 1038.00 1037.93 1037.83 1037.33 1037.48 1037.86 1037.93 1037.90 1037.62 1037.34 1037.20 1037.19 1037.40 1037.70 1037.77 1037.63
1035.45 1035.80 1036.14 1037.94 1038.17 1038.53 1039.26 1039.66 1040.04 1039.89 1039.78 1040.38 1040.91 1040.71 1040.05 1039.00 1038.36 1038.18 1038.30 1038.52 1038.67 1039.16 1039.39 1039.55 1039.30 1039.07 1039.08 1039.10 1039.12 1039.13 1039.20 1039.33 1039.77 1039.68 1039.85 1039.47 1039.11 1038.71 1038.37 1038.12 1038.16 1038.09 1038.09 1038.00 1037.19 1036.86 1036.86 1036.36 1036.51 1036.76 1037.28 1037.57 1037.67 1037.54
1036.71 1036.83 1037.50 1038.72 1039.05 1040.19 1040.45 1040.66 1040.82 1040.65 1040.44 1040.62 1040.62 1040.11 1039.57 1038.74 1038.15 1038.16 1038.53 1039.02 1039.39 1039.80 1039.89 1040.04 1040.12 1040.08 1039.92 1039.82 1039.86 1039.61 1039.40 1039.44 1039.57 1039.88 1039.84 1039.41 1039.18 1038.77 1038.48 1038.21 1038.04 1038.04 1038.02 1037.98 1037.84 1037.72 1036.93 1037.08 1037.00 1037.54 1037.36 1037.58 1037.68 1037.60
1037.29 1037.48 1038.27 1039.20 1040.42 1041.08 1041.58 1041.78 1041.63 1041.24 1041.39 1041.74 1041.69 1041.64 1041.00 1040.18 1038.85 1038.35 1038.63 1038.93 1039.39 1039.79 1040.07 1040.22 1040.26 1040.23 1040.10 1040.05 1040.18 1040.36 1039.72 1039.50 1039.64 1039.70 1039.44 1039.01 1039.07 1038.58 1038.17 1037.80 1037.51 1037.59 1037.78 1037.83 1037.69 1037.59 1037.47 1037.48 1037.56 1037.61 1037.60 1037.63 1037.68 1037.67
1038.33 1039.08 1039.50 1040.60 1041.59 1041.89 1042.08 1042.31 1042.25 1042.49 1042.63 1042.68 1042.56 1042.34 1041.80 1041.38 1040.61 1038.90 1038.75 1039.07 1039.59 1039.72 1039.65 1039.79 1039.88 1039.73 1039.37 1039.43 1039.49 1039.57 1038.12 1039.53 1039.51 1039.38 1039.15 1038.78 1038.25 1037.61 1037.24 1037.04 1036.96 1037.00 1037.19 1037.32 1037.32 1037.33 1037.37 1037.47 1037.53 1037.61 1037.58 1037.54 1037.54 1037.59
1040.06 1040.38 1040.62 1041.09 1041.89 1042.38 1042.47 1042.50 1042.64 1042.86 1042.93 1042.84 1042.93 1042.75 1042.47 1042.20 1041.29 1039.18 1038.73 1039.14 1038.94 1038.92 1039.04 1039.06 1039.11 1039.37 1039.22 1039.23 1039.29 1039.55 1038.69 1039.53 1039.03 1037.55 1036.82 1036.49 1035.90 1035.82 1035.82 1036.00 1036.15 1036.33 1036.54 1036.69 1036.80 1036.93 1037.10 1037.28 1037.37 1037.47 1037.42 1037.39 1037.39 1037.42
Thickness
5559 5555 5550 5542 5535 5529 5522 5515 5513 5511 5506 5505 5503 5500 5497 5493 5490 5483 5465 5459 5446 5409 5395 5391 5382 5370 5355 5338 5313 5317 5299 5292 5272 5252 5235 5218 5210 5206 5192 5198 5195 5173 5157 5164 5170 5164 5156 5163 5164 5145 5137 5141 5139 5138
5555 5549 5544 5538 5529 5521 5516 5508 5504 5501 5498 5494 5491 5487 5484 5481 5477 5474 5455 5447 5435 5412 5386 5378 5367 5359 5350 5339 5319 5301 5286 5270 5252 5225 5201 5192 5211 5183 5180 5183 5195 5168 5159 5139 5148 5168 5161 5160 5148 5141 5137 5136 5135 5133
5548 5543 5538 5532 5523 5515 5508 5502 5498 5492 5491 5486 5483 5476 5472 5468 5464 5461 5442 5432 5420 5392 5374 5363 5354 5348 5336 5325 5317 5288 5277 5265 5253 5230 5204 5191 5196 5200 5173 5175 5166 5170 5161 5145 5151 5158 5155 5156 5150 5145 5141 5139 5136 5134
5543 5537 5531 5525 5518 5509 5502 5495 5490 5484 5484 5477 5471 5465 5460 5453 5450 5444 5430 5419 5408 5383 5346 5345 5346 5339 5327 5315 5305 5290 5273 5258 5244 5228 5191 5174 5193 5205 5189 5179 5161 5146 5153 5142 5147 5155 5154 5161 5149 5143 5143 5141 5139 5136
5535 5529 5524 5517 5511 5503 5493 5489 5481 5475 5473 5468 5458 5452 5447 5441 5436 5426 5416 5405 5400 5381 5343 5339 5334 5329 5317 5304 5292 5279 5264 5248 5233 5211 5188 5188 5206 5193 5183 5168 5138 5138 5134 5133 5139 5147 5142 5142 5143 5142 5139 5139 5137 5136
5532 5523 5518 5509 5502 5493 5487 5480 5474 5465 5463 5456 5448 5442 5435 5430 5424 5418 5397 5392 5386 5377 5342 5309 5324 5317 5304 5292 5279 5267 5253 5239 5224 5210 5206 5196 5199 5176 5147 5151 5148 5147 5147 5148 5141 5140 5142 5143 5142 5139 5137 5135 5133 5135
5522 5514 5509 5501 5492 5483 5475 5469 5463 5457 5452 5443 5437 5430 5424 5418 5414 5401 5382 5377 5372 5365 5331 5295 5294 5305 5289 5279 5264 5253 5241 5231 5222 5205 5195 5189 5185 5157 5120 5131 5155 5150 5148 5149 5144 5136 5138 5140 5136 5137 5136 5134 5133 5132
5512 5507 5497 5492 5482 5473 5466 5461 5455 5449 5441 5432 5424 5418 5411 5405 5397 5387 5377 5368 5364 5348 5328 5272 5272 5284 5272 5261 5244 5237 5229 5220 5215 5207 5194 5176 5173 5156 5135 5152 5152 5147 5143 5147 5143 5141 5138 5137 5137 5138 5135 5135 5134 5133
5505 5499 5493 5483 5475 5466 5457 5452 5447 5440 5431 5418 5411 5407 5401 5390 5377 5369 5363 5357 5350 5333 5284 5259 5247 5242 5254 5238 5230 5224 5216 5202 5203 5192 5187 5182 5170 5153 5144 5134 5138 5140 5135 5135 5139 5140 5139 5136 5136 5135 5133 5134 5132 5134
5488 5482 5478 5471 5466 5457 5454 5446 5440 5430 5420 5404 5402 5394 5367 5367 5364 5360 5346 5334 5318 5295 5280 5252 5241 5235 5232 5217 5203 5191 5174 5182 5174 5178 5173 5171 5160 5147 5146 5138 5133 5135 5135 5133 5133 5137 5135 5132 5131 5131 5131 5133 5132 5131
5478 5473 5468 5459 5454 5449 5444 5436 5427 5420 5407 5400 5383 5371 5367 5361 5352 5322 5297 5295 5269 5259 5249 5238 5224 5219 5220 5196 5188 5180 5151 5161 5156 5168 5167 5166 5152 5154 5147 5143 5141 5136 5134 5133 5131 5133 5130 5129 5129 5129 5130 5130 5130 5130
5469 5462 5453 5446 5445 5438 5435 5426 5417 5409 5401 5396 5383 5373 5358 5334 5308 5299 5249 5263 5256 5241 5237 5233 5227 5217 5202 5193 5168 5153 5143 5148 5155 5162 5159 5164 5158 5149 5143 5137 5134 5129 5129 5130 5126 5126 5128 5131 5131 5130 5130 5129 5128 5127
5456 5452 5444 5439 5431 5429 5421 5413 5403 5400 5395 5385 5369 5349 5335 5307 5299 5276 5266 5251 5245 5248 5235 5224 5210 5201 5191 5177 5146 5135 5134 5147 5155 5146 5164 5153 5151 5146 5132 5132 5132 5131 5129 5129 5128 5129 5130 5131 5131 5130 5129 5129 5127 5127
5443 5437 5433 5424 5421 5415 5407 5398 5392 5390 5386 5363 5346 5330 5299 5276 5268 5272 5266 5257 5254 5243 5224 5211 5198 5187 5169 5160 5134 5133 5143 5134 5138 5146 5156 5145 5138 5135 5133 5132 5128 5125 5124 5123 5123 5125 5128 5128 5127 5129 5127 5125 5125 5126
5429 5425 5420 5413 5412 5402 5394 5385 5383 5382 5368 5340 5331 5300 5275 5277 5263 5260 5253 5245 5237 5223 5214 5199 5186 5168 5146 5137 5131 5122 5123 5122 5157 5157 5152 5145 5137 5130 5129 5128 5123 5122 5120 5119 5118 5121 5125 5125 5125 5126 5128 5126 5126 5125
5418 5408 5406 5408 5396 5391 5382 5375 5373 5368 5341 5324 5301 5286 5276 5265 5255 5246 5236 5230 5221 5212 5203 5183 5151 5139 5129 5111 5126 5110 5108 5115 5147 5139 5136 5137 5132 5130 5128 5126 5123 5120 5118 5117 5119 5119 5123 5125 5125 5124 5127 5127 5126 5126
5405 5402 5402 5395 5384 5377 5370 5367 5359 5330 5313 5298 5286 5283 5267 5256 5253 5237 5232 5223 5211 5210 5181 5148 5150 5142 5120 5106 5124 5131 5116 5137 5134 5131 5138 5134 5132 5129 5127 5126 5126 5124 5123 5123 5120 5121 5121 5123 5122 5126 5128 5128 5129 5129
5395 5392 5389 5381 5375 5369 5358 5350 5330 5309 5286 5271 5282 5270 5267 5257 5246 5239 5224 5215 5213 5185 5169 5158 5141 5124 5115 5121 5124 5135 5126 5130 5134 5138 5134 5132 5128 5127 5126 5126 5127 5127 5126 5126 5125 5125 5126 5127 5127 5127 5128 5129 5131 5131
5386 5382 5374 5369 5374 5363 5343 5322 5313 5286 5268 5266 5268 5264 5257 5251 5243 5231 5223 5210 5195 5185 5166 5139 5131 5119 5135 5138 5135 5129 5122 5124 5123 5126 5130 5131 5128 5128 5128 5128 5129 5129 5128 5126 5126 5126 5128 5126 5127 5129 5130 5131 5131 5131
5371 5364 5363 5365 5364 5347 5322 5301 5299 5288 5263 5266 5259 5255 5248 5235 5232 5230 5217 5208 5198 5167 5151 5139 5146 5144 5140 5141 5138 5135 5129 5123 5122 5122 5123 5127 5126 5126 5129 5130 5129 5129 5129 5128 5127 5131 5128 5128 5128 5128 5129 5130 5129 5129
5363 5353 5354 5356 5340 5324 5296 5277 5273 5268 5264 5257 5249 5243 5228 5227 5215 5201 5192 5196 5168 5148 5149 5153 5149 5150 5142 5139 5136 5133 5128 5127 5127 5127 5127 5126 5130 5129 5127 5127 5125 5126 5124 5123 5122 5122 5124 5123 5124 5125 5124 5125 5126 5125
5350 5347 5345 5340 5321 5302 5279 5267 5273 5263 5258 5239 5231 5225 5207 5205 5192 5184 5179 5163 5153 5176 5168 5161 5156 5149 5146 5143 5144 5138 5140 5137 5135 5133 5135 5132 5127 5125 5124 5123 5122 5120 5119 5119 5119 5118 5119 5119 5122 5123 5121 5122 5121 5122
5346 5346 5332 5324 5311 5293 5265 5257 5262 5248 5256 5234 5211 5215 5198 5187 5181 5183 5168 5167 5180 5184 5176 5171 5162 5156 5154 5150 5147 5145 5142 5140 5137 5134 5131 5129 5126 5124 5122 5121 5119 5117 5117 5116 5115 5115 5114 5118 5117 5119 5117 5117 5117 5117
5339 5320 5308 5296 5292 5266 5249 5249 5247 5239 5225 5217 5205 5217 5201 5179 5173 5163 5177 5178 5191 5178 5175 5167 5157 5153 5149 5145 5142 5143 5143 5141 5137 5134 5131 5127 5123 5122 5120 5118 5116 5115 5114 5113 5111 5111 5110 5111 5114 5112 5112 5112 5112 5112
5330 5296 5296 5278 5256 5268 5253 5240 5224 5235 5226 5196 5208 5206 5191 5172 5175 5155 5174 5190 5181 5178 5173 5162 5154 5151 5146 5135 5137 5139 5142 5138 5133 5128 5129 5126 5123 5119 5116 5113 5112 5111 5110 5107 5106 5106 5106 5106 5107 5107 5108 5110 5113 5107
5297 5268 5281 5264 5260 5276 5252 5249 5229 5222 5213 5208 5194 5176 5165 5167 5174 5182 5185 5189 5183 5177 5171 5166 5159 5145 5140 5138 5133 5131 5135 5132 5129 5125 5124 5122 5119 5114 5108 5107 5104 5105 5104 5103 5101 5101 5102 5103 5104 5104 5105 5105 5110 5105
5281 5268 5261 5268 5269 5266 5257 5245 5239 5233 5209 5214 5188 5180 5172 5181 5170 5197 5197 5191 5187 5179 5172 5164 5155 5147 5139 5133 5130 5127 5126 5124 5122 5121 5120 5118 5116 5112 5108 5103 5099 5099 5098 5096 5096 5097 5098 5100 5102 5104 5104 5104 5103 5103
5266 5265 5277 5258 5257 5251 5243 5227 5220 5226 5220 5209 5207 5192 5189 5194 5206 5203 5196 5187 5178 5168 5161 5152 5144 5137 5131 5125 5121 5119 5117 5116 5115 5115 5115 5113 5110 5107 5103 5100 5097 5095 5094 5092 5092 5093 5095 5097 5099 5102 5102 5102 5101 5102
5261 5259 5265 5243 5238 5238 5233 5239 5237 5226 5226 5218 5210 5201 5197 5203 5200 5194 5190 5181 5170 5162 5153 5142 5134 5125 5120 5116 5112 5109 5108 5107 5104 5100 5098 5096 5097 5099 5097 5093 5090 5088 5087 5086 5088 5090 5092 5096 5097 5098 5098 5098 5099 5100
5252 5246 5247 5225 5244 5246 5225 5216 5211 5204 5207 5203 5199 5198 5197 5196 5193 5188 5181 5171 5163 5154 5143 5131 5122 5116 5109 5104 5101 5101 5100 5099 5098 5095 5088 5087 5090 5092 5090 5088 5085 5083 5082 5081 5081 5082 5085 5088 5090 5091 5092 5094 5095 5096
5241 5239 5236 5228 5222 5207 5199 5194 5192 5198 5187 5178 5172 5178 5182 5178 5184 5181 5174 5165 5154 5143 5134 5123 5113 5104 5101 5094 5090 5089 5090 5092 5092 5092 5091 5090 5089 5088 5086 5084 5082 5080 5078 5076 5076 5076 5077 5079 5081 5084 5087 5089 5091 5092
5230 5218 5230 5228 5212 5193 5185 5182 5174 5176 5165 5168 5169 5152 5161 5162 5166 5171 5167 5158 5146 5139 5134 5119 5109 5107 5103 5097 5094 5091 5091 5088 5087 5088 5088 5087 5087 5086 5084 5081 5079 5076 5074 5072 5071 5070 5071 5072 5076 5079 5083 5086 5088 5089
5198 5197 5193 5198 5195 5196 5183 5181 5172 5171 5161 5158 5156 5147 5144 5152 5165 5166 5162 5155 5146 5136 5126 5117 5111 5105 5099 5094 5091 5088 5087 5085 5084 5085 5086 5086 5086 5085 5082 5080 5077 5073 5070 5068 5066 5065 5066 5067 5071 5074 5079 5082 5085 5087